Time,TemperatureF,DewpointF,PressureIn,WindDirection,WindDirectionDegrees,WindSpeedMPH,WindSpeedGustMPH,Humidity,HourlyPrecipIn,Conditions,Clouds,dailyrainin,SoftwareType,DateUTC
2013-11-10 00:01:00,38.8,21.8,30.15,NW,315,4.0,4.0,50,0.00,,---,0.00,VWS V14.01,2013-11-10 06:01:00,
2013-11-10 00:06:00,38.7,22.1,30.15,West,270,6.3,6.3,51,0.00,,---,0.00,VWS V14.01,2013-11-10 06:06:00,
2013-11-10 00:11:00,38.7,22.1,30.15,West,270,4.9,8.5,51,0.00,,---,0.00,VWS V14.01,2013-11-10 06:11:00,
2013-11-10 00:16:00,38.7,22.1,30.15,NW,315,10.1,10.1,51,0.00,,---,0.00,VWS V14.01,2013-11-10 06:16:00,
2013-11-10 00:21:00,38.7,22.6,30.15,NW,315,7.6,7.6,52,0.00,,---,0.00,VWS V14.01,2013-11-10 06:21:00,
2013-11-10 00:26:00,38.5,22.4,30.15,NW,315,5.6,8.5,52,0.00,,---,0.00,VWS V14.01,2013-11-10 06:26:00,
2013-11-10 00:31:00,38.5,22.4,30.15,West,270,8.1,8.1,52,0.00,,---,0.00,VWS V14.01,2013-11-10 06:31:00,
2013-11-10 00:36:00,38.5,22.9,30.15,West,270,5.6,9.8,53,0.00,,---,0.00,VWS V14.01,2013-11-10 06:36:00,
2013-11-10 00:41:00,38.5,22.9,30.15,West,270,8.1,12.3,53,0.00,,---,0.00,VWS V14.01,2013-11-10 06:41:00,
2013-11-10 00:46:00,38.5,23.3,30.15,West,270,7.8,8.1,54,0.00,,---,0.00,VWS V14.01,2013-11-10 06:46:00,
2013-11-10 00:51:00,38.5,23.3,30.15,West,270,5.4,8.7,54,0.00,,---,0.00,VWS V14.01,2013-11-10 06:51:00,
2013-11-10 00:56:00,38.5,23.3,30.15,West,270,7.8,8.5,54,0.00,,---,0.00,VWS V14.01,2013-11-10 06:56:00,
2013-11-10 01:01:00,38.3,23.6,30.18,West,270,5.8,8.7,55,0.00,,---,0.00,VWS V14.01,2013-11-10 07:01:00,
2013-11-10 01:06:00,38.1,23.4,30.18,West,270,12.5,12.5,55,0.00,,---,0.00,VWS V14.01,2013-11-10 07:06:00,
2013-11-10 01:11:00,37.9,23.2,30.18,NW,315,7.8,8.1,55,0.00,,---,0.00,VWS V14.01,2013-11-10 07:11:00,
2013-11-10 01:16:00,37.9,23.7,30.18,NW,315,6.5,6.5,56,0.00,,---,0.00,VWS V14.01,2013-11-10 07:16:00,
2013-11-10 01:22:00,37.9,23.7,30.18,West,270,10.3,10.3,56,0.00,,---,0.00,VWS V14.01,2013-11-10 07:22:00,
2013-11-10 01:26:00,37.6,23.3,30.18,NW,315,8.1,8.1,56,0.00,,---,0.00,VWS V14.01,2013-11-10 07:26:00,
2013-11-10 01:31:00,37.6,23.7,30.18,West,270,7.2,7.8,57,0.00,,---,0.00,VWS V14.01,2013-11-10 07:31:00,
2013-11-10 01:37:00,37.6,23.7,30.18,NW,315,8.1,11.0,57,0.00,,---,0.00,VWS V14.01,2013-11-10 07:37:00,
2013-11-10 01:42:00,37.6,24.2,30.18,West,270,5.8,6.9,58,0.00,,---,0.00,VWS V14.01,2013-11-10 07:42:00,
2013-11-10 01:47:00,37.8,24.3,30.18,NW,315,7.2,7.2,58,0.00,,---,0.00,VWS V14.01,2013-11-10 07:47:00,
2013-11-10 01:52:00,37.8,24.3,30.18,NW,315,8.1,8.1,58,0.00,,---,0.00,VWS V14.01,2013-11-10 07:52:00,
2013-11-10 01:57:00,37.6,24.2,30.18,NW,315,5.4,6.0,58,0.00,,---,0.00,VWS V14.01,2013-11-10 07:57:00,
2013-11-10 02:02:00,37.6,24.2,30.18,NW,315,5.4,6.3,58,0.00,,---,0.00,VWS V14.01,2013-11-10 08:02:00,
2013-11-10 02:07:00,37.6,24.2,30.18,West,270,6.0,8.5,58,0.00,,---,0.00,VWS V14.01,2013-11-10 08:07:00,
2013-11-10 02:12:00,37.4,24.0,30.18,West,270,6.3,6.9,58,0.00,,---,0.00,VWS V14.01,2013-11-10 08:12:00,
2013-11-10 02:17:00,37.4,24.4,30.21,NW,315,7.6,13.0,59,0.00,,---,0.00,VWS V14.01,2013-11-10 08:17:00,
2013-11-10 02:22:00,37.2,24.2,30.21,West,270,10.1,10.1,59,0.00,,---,0.00,VWS V14.01,2013-11-10 08:22:00,
2013-11-10 02:27:00,37.0,24.1,30.21,West,270,5.8,7.4,59,0.00,,---,0.00,VWS V14.01,2013-11-10 08:27:00,
2013-11-10 02:32:00,37.0,24.5,30.21,WNW,292,4.3,5.8,60,0.00,,---,0.00,VWS V14.01,2013-11-10 08:32:00,
2013-11-10 02:37:00,37.0,24.5,30.21,West,270,7.2,7.4,60,0.00,,---,0.00,VWS V14.01,2013-11-10 08:37:00,
2013-11-10 02:42:00,37.0,24.5,30.21,West,270,4.3,7.4,60,0.00,,---,0.00,VWS V14.01,2013-11-10 08:42:00,
2013-11-10 02:47:00,37.0,24.9,30.21,NW,315,5.8,7.2,61,0.00,,---,0.00,VWS V14.01,2013-11-10 08:47:00,
2013-11-10 02:52:00,36.9,24.7,30.21,West,270,5.8,5.8,61,0.00,,---,0.00,VWS V14.01,2013-11-10 08:52:00,
2013-11-10 02:57:00,36.9,24.7,30.21,West,270,6.3,7.8,61,0.00,,---,0.00,VWS V14.01,2013-11-10 08:57:00,
2013-11-10 03:02:00,36.9,24.7,30.21,West,270,3.8,6.3,61,0.00,,---,0.00,VWS V14.01,2013-11-10 09:02:00,
2013-11-10 03:07:00,36.9,24.7,30.21,West,270,3.1,7.2,61,0.00,,---,0.00,VWS V14.01,2013-11-10 09:07:00,
2013-11-10 03:12:00,36.7,24.5,30.21,West,270,6.5,8.1,61,0.00,,---,0.00,VWS V14.01,2013-11-10 09:12:00,
2013-11-10 03:17:00,36.7,24.9,30.24,NW,315,7.2,7.8,62,0.00,,---,0.00,VWS V14.01,2013-11-10 09:17:00,
2013-11-10 03:22:00,36.9,24.7,30.24,West,270,8.1,8.1,61,0.00,,---,0.00,VWS V14.01,2013-11-10 09:22:00,
2013-11-10 03:27:00,36.9,25.1,30.24,NW,315,5.4,5.8,62,0.00,,---,0.00,VWS V14.01,2013-11-10 09:27:00,
2013-11-10 03:32:00,36.9,24.7,30.21,West,270,5.4,7.4,61,0.00,,---,0.00,VWS V14.01,2013-11-10 09:32:00,
2013-11-10 03:37:00,36.9,24.7,30.21,NW,315,4.0,8.5,61,0.00,,---,0.00,VWS V14.01,2013-11-10 09:37:00,
2013-11-10 03:42:00,36.9,24.7,30.21,West,270,10.1,10.1,61,0.00,,---,0.00,VWS V14.01,2013-11-10 09:42:00,
2013-11-10 03:47:00,36.9,24.7,30.18,West,270,11.4,11.4,61,0.00,,---,0.00,VWS V14.01,2013-11-10 09:47:00,
2013-11-10 03:52:00,36.9,24.7,30.18,West,270,10.3,10.3,61,0.00,,---,0.00,VWS V14.01,2013-11-10 09:52:00,
2013-11-10 03:57:00,37.0,24.9,30.18,NW,315,7.4,12.1,61,0.00,,---,0.00,VWS V14.01,2013-11-10 09:57:00,
2013-11-10 04:02:00,37.0,24.9,30.21,WNW,292,6.3,6.3,61,0.00,,---,0.00,VWS V14.01,2013-11-10 10:02:00,
2013-11-10 04:07:00,37.2,24.6,30.21,NW,315,9.6,9.6,60,0.00,,---,0.00,VWS V14.01,2013-11-10 10:07:00,
2013-11-10 04:12:00,37.4,24.8,30.21,West,270,8.7,8.7,60,0.00,,---,0.00,VWS V14.01,2013-11-10 10:12:00,
2013-11-10 04:17:00,37.4,24.4,30.21,West,270,9.8,10.7,59,0.00,,---,0.00,VWS V14.01,2013-11-10 10:17:00,
2013-11-10 04:22:00,37.6,24.6,30.21,West,270,8.1,9.8,59,0.00,,---,0.00,VWS V14.01,2013-11-10 10:22:00,
2013-11-10 04:27:00,37.8,24.3,30.21,NW,315,7.4,8.5,58,0.00,,---,0.00,VWS V14.01,2013-11-10 10:27:00,
2013-11-10 04:32:00,37.8,24.3,30.21,West,270,8.5,10.3,58,0.00,,---,0.00,VWS V14.01,2013-11-10 10:32:00,
2013-11-10 04:36:00,37.9,24.1,30.21,NW,315,8.7,13.2,57,0.00,,---,0.00,VWS V14.01,2013-11-10 10:36:00,
2013-11-10 04:41:00,37.9,24.1,30.21,NW,315,6.0,13.0,57,0.00,,---,0.00,VWS V14.01,2013-11-10 10:41:00,
2013-11-10 04:46:00,37.9,24.1,30.24,NW,315,8.7,9.0,57,0.00,,---,0.00,VWS V14.01,2013-11-10 10:46:00,
2013-11-10 04:51:00,37.9,24.5,30.24,NW,315,10.3,10.3,58,0.00,,---,0.00,VWS V14.01,2013-11-10 10:51:00,
2013-11-10 04:56:00,38.1,24.7,30.24,NW,315,6.3,9.8,58,0.00,,---,0.00,VWS V14.01,2013-11-10 10:56:00,
2013-11-10 05:01:00,38.1,24.7,30.24,NW,315,7.6,13.4,58,0.00,,---,0.00,VWS V14.01,2013-11-10 11:01:00,
2013-11-10 05:06:00,38.1,24.7,30.24,NW,315,6.0,10.5,58,0.00,,---,0.00,VWS V14.01,2013-11-10 11:06:00,
2013-11-10 05:11:00,38.1,24.7,30.24,NW,315,7.6,7.6,58,0.00,,---,0.00,VWS V14.01,2013-11-10 11:11:00,
2013-11-10 05:16:00,37.9,24.5,30.24,West,270,5.6,6.0,58,0.00,,---,0.00,VWS V14.01,2013-11-10 11:16:00,
2013-11-10 05:21:00,37.9,24.9,30.24,West,270,7.6,8.1,59,0.00,,---,0.00,VWS V14.01,2013-11-10 11:21:00,
2013-11-10 05:26:00,37.9,24.9,30.24,WNW,292,10.3,10.3,59,0.00,,---,0.00,VWS V14.01,2013-11-10 11:26:00,
2013-11-10 05:31:00,37.9,24.9,30.27,NW,315,4.0,9.6,59,0.00,,---,0.00,VWS V14.01,2013-11-10 11:31:00,
2013-11-10 05:36:00,37.9,24.9,30.27,NW,315,3.6,6.3,59,0.00,,---,0.00,VWS V14.01,2013-11-10 11:36:00,
2013-11-10 05:41:00,37.9,24.9,30.27,NW,315,3.8,8.5,59,0.00,,---,0.00,VWS V14.01,2013-11-10 11:41:00,
2013-11-10 05:46:00,37.9,24.9,30.27,NW,315,11.4,12.5,59,0.00,,---,0.00,VWS V14.01,2013-11-10 11:46:00,
2013-11-10 05:51:00,37.9,24.9,30.27,West,270,7.4,7.4,59,0.00,,---,0.00,VWS V14.01,2013-11-10 11:51:00,
2013-11-10 05:56:00,37.9,24.5,30.27,NW,315,7.2,7.2,58,0.00,,---,0.00,VWS V14.01,2013-11-10 11:56:00,
2013-11-10 06:01:00,37.9,24.5,30.27,NW,315,8.7,12.5,58,0.00,,---,0.00,VWS V14.01,2013-11-10 12:01:00,
2013-11-10 06:06:00,38.1,24.7,30.27,NW,315,6.0,8.7,58,0.00,,---,0.00,VWS V14.01,2013-11-10 12:06:00,
2013-11-10 06:11:00,38.1,24.7,30.27,NW,315,5.4,7.6,58,0.00,,---,0.00,VWS V14.01,2013-11-10 12:11:00,
2013-11-10 06:16:00,38.1,24.7,30.27,NW,315,2.7,7.6,58,0.00,,---,0.00,VWS V14.01,2013-11-10 12:16:00,
2013-11-10 06:21:00,38.1,24.7,30.27,NW,315,5.4,7.4,58,0.00,,---,0.00,VWS V14.01,2013-11-10 12:21:00,
2013-11-10 06:26:00,37.8,24.3,30.27,NW,315,5.4,6.5,58,0.00,,---,0.00,VWS V14.01,2013-11-10 12:26:00,
2013-11-10 06:31:00,37.4,24.0,30.27,West,270,5.8,10.1,58,0.00,,---,0.00,VWS V14.01,2013-11-10 12:31:00,
2013-11-10 06:36:00,37.0,24.1,30.27,West,270,5.8,10.1,59,0.00,,---,0.00,VWS V14.01,2013-11-10 12:36:00,
2013-11-10 06:41:00,36.9,24.3,30.27,North,0,4.3,9.4,60,0.00,,---,0.00,VWS V14.01,2013-11-10 12:41:00,
2013-11-10 06:46:00,36.9,24.7,30.30,NW,315,5.4,7.8,61,0.00,,---,0.00,VWS V14.01,2013-11-10 12:46:00,
2013-11-10 06:51:00,36.7,24.9,30.30,NW,315,3.4,4.9,62,0.00,,---,0.00,VWS V14.01,2013-11-10 12:51:00,
2013-11-10 06:56:00,36.7,25.3,30.30,NW,315,4.3,4.9,63,0.00,,---,0.00,VWS V14.01,2013-11-10 12:56:00,
2013-11-10 07:01:00,37.0,25.6,30.33,NW,315,6.0,7.2,63,0.00,,---,0.00,VWS V14.01,2013-11-10 13:01:00,
2013-11-10 07:06:00,37.4,26.0,30.33,NW,315,3.4,5.4,63,0.00,,---,0.00,VWS V14.01,2013-11-10 13:06:00,
2013-11-10 07:11:00,37.6,26.1,30.33,West,270,4.0,5.6,63,0.00,,---,0.00,VWS V14.01,2013-11-10 13:11:00,
2013-11-10 07:16:00,37.9,26.1,30.33,NW,315,7.4,7.6,62,0.00,,---,0.00,VWS V14.01,2013-11-10 13:16:00,
2013-11-10 07:21:00,38.1,25.9,30.33,NW,315,6.0,7.4,61,0.00,,---,0.00,VWS V14.01,2013-11-10 13:21:00,
2013-11-10 07:26:00,38.5,26.2,30.33,West,270,3.8,5.6,61,0.00,,---,0.00,VWS V14.01,2013-11-10 13:26:00,
2013-11-10 07:31:00,38.7,26.4,30.36,West,270,3.6,3.6,61,0.00,,---,0.00,VWS V14.01,2013-11-10 13:31:00,
2013-11-10 07:36:00,39.0,26.7,30.36,NW,315,5.4,5.4,61,0.00,,---,0.00,VWS V14.01,2013-11-10 13:36:00,
2013-11-10 07:41:00,39.4,26.7,30.36,NW,315,5.4,6.3,60,0.00,,---,0.00,VWS V14.01,2013-11-10 13:41:00,
2013-11-10 07:46:00,39.7,26.6,30.36,West,270,6.7,7.6,59,0.00,,---,0.00,VWS V14.01,2013-11-10 13:46:00,
2013-11-10 07:51:00,40.8,26.8,30.36,North,0,4.3,8.1,57,0.00,,---,0.00,VWS V14.01,2013-11-10 13:51:00,
2013-11-10 07:56:00,41.4,26.4,30.36,NW,315,4.9,5.4,55,0.00,,---,0.00,VWS V14.01,2013-11-10 13:56:00,
2013-11-10 08:01:00,41.5,26.6,30.36,West,270,4.0,5.6,55,0.00,,---,0.00,VWS V14.01,2013-11-10 14:01:00,
2013-11-10 08:06:00,42.3,26.4,30.36,NW,315,10.1,10.1,53,0.00,,---,0.00,VWS V14.01,2013-11-10 14:06:00,
2013-11-10 08:11:00,42.6,26.2,30.36,NW,315,8.1,12.8,52,0.00,,---,0.00,VWS V14.01,2013-11-10 14:11:00,
2013-11-10 08:16:00,42.6,25.8,30.39,NW,315,8.7,8.7,51,0.00,,---,0.00,VWS V14.01,2013-11-10 14:16:00,
2013-11-10 08:21:00,42.8,25.9,30.39,NW,315,4.0,6.5,51,0.00,,---,0.00,VWS V14.01,2013-11-10 14:21:00,
2013-11-10 08:26:00,43.2,25.8,30.39,NW,315,6.5,8.1,50,0.00,,---,0.00,VWS V14.01,2013-11-10 14:26:00,
2013-11-10 08:31:00,43.7,26.3,30.39,West,270,5.6,8.5,50,0.00,,---,0.00,VWS V14.01,2013-11-10 14:31:00,
2013-11-10 08:36:00,44.2,26.3,30.39,NW,315,4.0,7.4,49,0.00,,---,0.00,VWS V14.01,2013-11-10 14:36:00,
2013-11-10 08:41:00,44.8,26.8,30.39,West,270,7.4,7.4,49,0.00,,---,0.00,VWS V14.01,2013-11-10 14:41:00,
2013-11-10 08:46:00,45.3,26.8,30.39,NW,315,3.6,5.4,48,0.00,,---,0.00,VWS V14.01,2013-11-10 14:46:00,
2013-11-10 08:51:00,45.1,26.6,30.39,West,270,8.5,9.6,48,0.00,,---,0.00,VWS V14.01,2013-11-10 14:51:00,
2013-11-10 08:56:00,44.8,25.8,30.39,West,270,8.1,8.7,47,0.00,,---,0.00,VWS V14.01,2013-11-10 14:56:00,
2013-11-10 09:01:00,45.1,26.1,30.39,NW,315,9.0,9.0,47,0.00,,---,0.00,VWS V14.01,2013-11-10 15:01:00,
2013-11-10 09:06:00,45.1,26.1,30.39,NW,315,6.7,12.8,47,0.00,,---,0.00,VWS V14.01,2013-11-10 15:06:00,
2013-11-10 09:11:00,45.5,26.5,30.39,NW,315,5.8,7.2,47,0.00,,---,0.00,VWS V14.01,2013-11-10 15:11:00,
2013-11-10 09:16:00,46.0,26.4,30.39,NW,315,6.9,7.8,46,0.00,,---,0.00,VWS V14.01,2013-11-10 15:16:00,
2013-11-10 09:21:00,45.7,25.6,30.39,NW,315,12.8,12.8,45,0.00,,---,0.00,VWS V14.01,2013-11-10 15:21:00,
2013-11-10 09:26:00,45.7,25.6,30.39,NW,315,9.6,11.2,45,0.00,,---,0.00,VWS V14.01,2013-11-10 15:26:00,
2013-11-10 09:31:00,46.4,25.7,30.36,North,0,6.0,6.0,44,0.00,,---,0.00,VWS V14.01,2013-11-10 15:31:00,
2013-11-10 09:36:00,47.1,26.3,30.36,NW,315,7.8,8.5,44,0.00,,---,0.00,VWS V14.01,2013-11-10 15:36:00,
2013-11-10 09:41:00,46.6,26.4,30.36,NW,315,5.4,8.5,45,0.00,,---,0.00,VWS V14.01,2013-11-10 15:41:00,
2013-11-10 09:46:00,46.6,26.4,30.39,West,270,7.4,7.4,45,0.00,,---,0.00,VWS V14.01,2013-11-10 15:46:00,
2013-11-10 09:51:00,47.3,27.0,30.39,NW,315,4.9,7.4,45,0.00,,---,0.00,VWS V14.01,2013-11-10 15:51:00,
2013-11-10 09:56:00,47.1,26.3,30.39,NW,315,7.8,7.8,44,0.00,,---,0.00,VWS V14.01,2013-11-10 15:56:00,
2013-11-10 10:01:00,47.3,26.5,30.39,NW,315,6.5,7.4,44,0.00,,---,0.00,VWS V14.01,2013-11-10 16:01:00,
2013-11-10 10:06:00,47.8,26.4,30.39,West,270,3.8,7.2,43,0.00,,---,0.00,VWS V14.01,2013-11-10 16:06:00,
2013-11-10 10:11:00,48.4,26.9,30.39,West,270,6.5,6.5,43,0.00,,---,0.00,VWS V14.01,2013-11-10 16:11:00,
2013-11-10 10:16:00,48.7,27.3,30.39,NW,315,6.0,8.1,43,0.00,,---,0.00,VWS V14.01,2013-11-10 16:16:00,
2013-11-10 10:21:00,48.9,26.9,30.39,WNW,292,7.6,7.6,42,0.00,,---,0.00,VWS V14.01,2013-11-10 16:21:00,
2013-11-10 10:26:00,49.3,27.2,30.39,West,270,4.9,5.4,42,0.00,,---,0.00,VWS V14.01,2013-11-10 16:26:00,
2013-11-10 10:31:00,48.7,26.7,30.39,NW,315,9.0,10.1,42,0.00,,---,0.00,VWS V14.01,2013-11-10 16:31:00,
2013-11-10 10:36:00,48.9,26.9,30.39,West,270,5.8,7.4,42,0.00,,---,0.00,VWS V14.01,2013-11-10 16:36:00,
2013-11-10 10:41:00,49.5,26.8,30.39,NW,315,8.7,11.9,41,0.00,,---,0.00,VWS V14.01,2013-11-10 16:41:00,
2013-11-10 10:46:00,49.3,26.6,30.39,NW,315,6.5,6.5,41,0.00,,---,0.00,VWS V14.01,2013-11-10 16:46:00,
2013-11-10 10:51:00,49.6,26.9,30.39,West,270,7.8,10.7,41,0.00,,---,0.00,VWS V14.01,2013-11-10 16:51:00,
2013-11-10 10:56:00,49.1,25.8,30.39,West,270,3.8,6.0,40,0.00,,---,0.00,VWS V14.01,2013-11-10 16:56:00,
2013-11-10 11:01:00,49.5,26.2,30.39,West,270,5.8,6.5,40,0.00,,---,0.00,VWS V14.01,2013-11-10 17:01:00,
2013-11-10 11:06:00,49.5,26.2,30.39,NW,315,5.6,8.7,40,0.00,,---,0.00,VWS V14.01,2013-11-10 17:06:00,
2013-11-10 11:11:00,50.2,26.8,30.39,West,270,3.6,6.5,40,0.00,,---,0.00,VWS V14.01,2013-11-10 17:11:00,
2013-11-10 11:16:00,50.7,27.3,30.39,NW,315,3.4,3.8,40,0.00,,---,0.00,VWS V14.01,2013-11-10 17:16:00,
2013-11-10 11:21:00,51.1,27.6,30.39,NW,315,4.5,6.0,40,0.00,,---,0.00,VWS V14.01,2013-11-10 17:21:00,
2013-11-10 11:26:00,50.9,27.5,30.39,West,270,4.9,4.9,40,0.00,,---,0.00,VWS V14.01,2013-11-10 17:26:00,
2013-11-10 11:31:00,49.1,25.8,30.39,NW,315,6.0,6.0,40,0.00,,---,0.00,VWS V14.01,2013-11-10 17:31:00,
2013-11-10 11:36:00,49.6,26.3,30.39,West,270,9.4,9.4,40,0.00,,---,0.00,VWS V14.01,2013-11-10 17:36:00,
2013-11-10 11:41:00,50.2,26.8,30.39,NW,315,3.8,6.5,40,0.00,,---,0.00,VWS V14.01,2013-11-10 17:41:00,
2013-11-10 11:46:00,50.0,26.6,30.39,West,270,8.5,8.5,40,0.00,,---,0.00,VWS V14.01,2013-11-10 17:46:00,
2013-11-10 11:51:00,49.8,26.5,30.39,NW,315,4.0,6.3,40,0.00,,---,0.00,VWS V14.01,2013-11-10 17:51:00,
2013-11-10 11:56:00,50.5,27.1,30.39,West,270,6.5,6.5,40,0.00,,---,0.00,VWS V14.01,2013-11-10 17:56:00,
2013-11-10 12:01:00,50.2,26.2,30.39,NW,315,6.3,8.5,39,0.00,,---,0.00,VWS V14.01,2013-11-10 18:01:00,
2013-11-10 12:06:00,50.2,26.2,30.39,West,270,3.6,7.8,39,0.00,,---,0.00,VWS V14.01,2013-11-10 18:06:00,
2013-11-10 12:11:00,50.4,27.0,30.39,West,270,6.5,6.5,40,0.00,,---,0.00,VWS V14.01,2013-11-10 18:11:00,
2013-11-10 12:16:00,50.5,26.5,30.36,West,270,4.3,4.7,39,0.00,,---,0.00,VWS V14.01,2013-11-10 18:16:00,
2013-11-10 12:21:00,51.1,27.0,30.36,NW,315,6.0,6.0,39,0.00,,---,0.00,VWS V14.01,2013-11-10 18:21:00,
2013-11-10 12:26:00,51.3,27.2,30.36,West,270,4.0,4.7,39,0.00,,---,0.00,VWS V14.01,2013-11-10 18:26:00,
2013-11-10 12:31:00,51.1,27.0,30.41,West,270,7.6,7.8,39,0.00,,---,0.00,VWS V14.01,2013-11-10 18:31:00,
2013-11-10 12:36:00,50.9,26.8,30.41,West,270,4.0,6.0,39,0.00,,---,0.00,VWS V14.01,2013-11-10 18:36:00,
2013-11-10 12:41:00,50.9,26.8,30.41,West,270,3.8,4.3,39,0.00,,---,0.00,VWS V14.01,2013-11-10 18:41:00,
2013-11-10 12:46:00,50.9,26.8,30.39,WNW,292,4.0,4.0,39,0.00,,---,0.00,VWS V14.01,2013-11-10 18:46:00,
2013-11-10 12:51:00,50.7,26.7,30.39,West,270,5.6,6.9,39,0.00,,---,0.00,VWS V14.01,2013-11-10 18:51:00,
2013-11-10 12:56:00,50.4,25.7,30.39,NW,315,3.6,7.8,38,0.00,,---,0.00,VWS V14.01,2013-11-10 18:56:00,
2013-11-10 13:01:00,50.4,25.7,30.39,NW,315,4.9,5.4,38,0.00,,---,0.00,VWS V14.01,2013-11-10 19:01:00,
2013-11-10 13:06:00,50.5,25.9,30.39,NW,315,6.3,6.3,38,0.00,,---,0.00,VWS V14.01,2013-11-10 19:06:00,
2013-11-10 13:11:00,50.2,25.6,30.39,NW,315,5.4,8.7,38,0.00,,---,0.00,VWS V14.01,2013-11-10 19:11:00,
2013-11-10 13:16:00,50.2,25.6,30.39,West,270,4.0,5.4,38,0.00,,---,0.00,VWS V14.01,2013-11-10 19:16:00,
2013-11-10 13:21:00,50.5,26.5,30.39,NW,315,2.5,3.8,39,0.00,,---,0.00,VWS V14.01,2013-11-10 19:21:00,
2013-11-10 13:26:00,50.0,25.4,30.39,West,270,6.0,6.0,38,0.00,,---,0.00,VWS V14.01,2013-11-10 19:26:00,
2013-11-10 13:31:00,50.0,25.4,30.39,West,270,6.0,7.4,38,0.00,,---,0.00,VWS V14.01,2013-11-10 19:31:00,
2013-11-10 13:36:00,49.8,25.9,30.39,SW,225,2.9,4.5,39,0.00,,---,0.00,VWS V14.01,2013-11-10 19:36:00,
2013-11-10 13:41:00,50.0,26.0,30.39,SW,225,8.5,9.4,39,0.00,,---,0.00,VWS V14.01,2013-11-10 19:41:00,
2013-11-10 13:46:00,49.6,25.7,30.39,South,180,4.3,6.5,39,0.00,,---,0.00,VWS V14.01,2013-11-10 19:46:00,
2013-11-10 13:51:00,49.5,25.5,30.39,South,180,4.3,6.3,39,0.00,,---,0.00,VWS V14.01,2013-11-10 19:51:00,
2013-11-10 13:56:00,49.6,25.7,30.39,NW,315,6.3,6.3,39,0.00,,---,0.00,VWS V14.01,2013-11-10 19:56:00,
2013-11-10 14:01:00,50.0,26.0,30.39,West,270,4.9,9.6,39,0.00,,---,0.00,VWS V14.01,2013-11-10 20:01:00,
2013-11-10 14:06:00,49.8,25.9,30.39,West,270,4.3,7.2,39,0.00,,---,0.00,VWS V14.01,2013-11-10 20:06:00,
2013-11-10 14:11:00,49.6,25.7,30.39,West,270,6.5,7.8,39,0.00,,---,0.00,VWS V14.01,2013-11-10 20:11:00,
2013-11-10 14:16:00,49.6,25.7,30.39,West,270,7.8,7.8,39,0.00,,---,0.00,VWS V14.01,2013-11-10 20:16:00,
2013-11-10 14:21:00,49.6,25.7,30.39,SW,225,4.7,4.7,39,0.00,,---,0.00,VWS V14.01,2013-11-10 20:21:00,
2013-11-10 14:26:00,49.8,25.9,30.39,West,270,4.5,4.5,39,0.00,,---,0.00,VWS V14.01,2013-11-10 20:26:00,
2013-11-10 14:31:00,50.2,26.2,30.39,West,270,6.0,6.3,39,0.00,,---,0.00,VWS V14.01,2013-11-10 20:31:00,
2013-11-10 14:36:00,49.8,25.9,30.39,West,270,5.6,6.3,39,0.00,,---,0.00,VWS V14.01,2013-11-10 20:36:00,
2013-11-10 14:41:00,49.8,25.9,30.39,West,270,3.8,5.6,39,0.00,,---,0.00,VWS V14.01,2013-11-10 20:41:00,
2013-11-10 14:46:00,50.0,26.0,30.39,West,270,5.4,6.5,39,0.00,,---,0.00,VWS V14.01,2013-11-10 20:46:00,
2013-11-10 14:51:00,49.8,25.9,30.39,SW,225,3.1,6.3,39,0.00,,---,0.00,VWS V14.01,2013-11-10 20:51:00,
2013-11-10 14:56:00,49.3,25.4,30.39,West,270,2.0,4.3,39,0.00,,---,0.00,VWS V14.01,2013-11-10 20:56:00,
2013-11-10 15:01:00,49.3,25.4,30.39,West,270,2.9,5.4,39,0.00,,---,0.00,VWS V14.01,2013-11-10 21:01:00,
2013-11-10 15:06:00,48.7,24.9,30.39,West,270,6.0,7.2,39,0.00,,---,0.00,VWS V14.01,2013-11-10 21:06:00,
2013-11-10 15:11:00,48.2,24.4,30.39,West,270,3.8,7.4,39,0.00,,---,0.00,VWS V14.01,2013-11-10 21:11:00,
2013-11-10 15:16:00,48.2,24.4,30.39,West,270,3.6,5.4,39,0.00,,---,0.00,VWS V14.01,2013-11-10 21:16:00,
2013-11-10 15:21:00,48.4,25.2,30.39,SW,225,3.6,4.3,40,0.00,,---,0.00,VWS V14.01,2013-11-10 21:21:00,
2013-11-10 15:26:00,46.8,23.7,30.39,West,270,3.8,4.0,40,0.00,,---,0.00,VWS V14.01,2013-11-10 21:26:00,
2013-11-10 15:31:00,45.5,23.2,30.39,SW,225,4.3,4.3,41,0.00,,---,0.00,VWS V14.01,2013-11-10 21:31:00,
2013-11-10 15:36:00,44.8,22.5,30.39,SW,225,2.5,4.0,41,0.00,,---,0.00,VWS V14.01,2013-11-10 21:36:00,
2013-11-10 15:41:00,44.1,22.5,30.39,West,270,2.0,2.5,42,0.00,,---,0.00,VWS V14.01,2013-11-10 21:41:00,
2013-11-10 15:46:00,43.7,22.7,30.36,West,270,2.5,2.7,43,0.00,,---,0.00,VWS V14.01,2013-11-10 21:46:00,
2013-11-10 15:51:00,43.7,22.7,30.36,SW,225,2.0,2.5,43,0.00,,---,0.00,VWS V14.01,2013-11-10 21:51:00,
2013-11-10 15:56:00,43.7,23.2,30.36,West,270,4.0,4.0,44,0.00,,---,0.00,VWS V14.01,2013-11-10 21:56:00,
2013-11-10 16:01:00,43.7,23.8,30.36,West,270,2.7,4.3,45,0.00,,---,0.00,VWS V14.01,2013-11-10 22:01:00,
2013-11-10 16:06:00,43.5,23.6,30.36,West,270,2.9,2.9,45,0.00,,---,0.00,VWS V14.01,2013-11-10 22:06:00,
2013-11-10 16:11:00,43.3,24.0,30.36,SW,225,2.0,2.0,46,0.00,,---,0.00,VWS V14.01,2013-11-10 22:11:00,
2013-11-10 16:16:00,43.5,24.6,30.36,West,270,2.5,2.5,47,0.00,,---,0.00,VWS V14.01,2013-11-10 22:16:00,
2013-11-10 16:21:00,43.5,24.6,30.36,West,270,4.3,4.3,47,0.00,,---,0.00,VWS V14.01,2013-11-10 22:21:00,
2013-11-10 16:26:00,43.3,24.5,30.36,West,270,2.9,2.9,47,0.00,,---,0.00,VWS V14.01,2013-11-10 22:26:00,
2013-11-10 16:31:00,43.0,24.1,30.36,SW,225,1.6,3.1,47,0.00,,---,0.00,VWS V14.01,2013-11-10 22:31:00,
2013-11-10 16:36:00,42.8,24.5,30.36,SW,225,2.5,2.9,48,0.00,,---,0.00,VWS V14.01,2013-11-10 22:36:00,
2013-11-10 16:41:00,42.6,24.3,30.36,West,270,1.6,1.6,48,0.00,,---,0.00,VWS V14.01,2013-11-10 22:41:00,
2013-11-10 16:46:00,42.4,24.6,30.36,West,270,2.5,2.7,49,0.00,,---,0.00,VWS V14.01,2013-11-10 22:46:00,
2013-11-10 16:51:00,42.4,24.6,30.36,West,270,2.0,2.0,49,0.00,,---,0.00,VWS V14.01,2013-11-10 22:51:00,
2013-11-10 16:56:00,42.3,24.5,30.36,West,270,2.5,3.1,49,0.00,,---,0.00,VWS V14.01,2013-11-10 22:56:00,
2013-11-10 17:01:00,42.3,24.5,30.36,West,270,2.7,2.7,49,0.00,,---,0.00,VWS V14.01,2013-11-10 23:01:00,
2013-11-10 17:06:00,42.3,24.5,30.36,West,270,2.7,2.7,49,0.00,,---,0.00,VWS V14.01,2013-11-10 23:06:00,
2013-11-10 17:11:00,42.3,24.5,30.36,West,270,1.6,1.6,49,0.00,,---,0.00,VWS V14.01,2013-11-10 23:11:00,
2013-11-10 17:16:00,42.3,24.5,30.36,West,270,2.7,2.7,49,0.00,,---,0.00,VWS V14.01,2013-11-10 23:16:00,
2013-11-10 17:21:00,42.3,25.0,30.36,SW,225,3.6,3.6,50,0.00,,---,0.00,VWS V14.01,2013-11-10 23:21:00,
2013-11-10 17:26:00,42.3,25.0,30.36,West,270,2.7,3.4,50,0.00,,---,0.00,VWS V14.01,2013-11-10 23:26:00,
2013-11-10 17:31:00,42.3,25.0,30.36,West,270,2.7,3.4,50,0.00,,---,0.00,VWS V14.01,2013-11-10 23:31:00,
2013-11-10 17:36:00,42.3,25.0,30.36,SW,225,3.4,4.0,50,0.00,,---,0.00,VWS V14.01,2013-11-10 23:36:00,
2013-11-10 17:41:00,42.3,25.0,30.36,West,270,3.1,4.9,50,0.00,,---,0.00,VWS V14.01,2013-11-10 23:41:00,
2013-11-10 17:46:00,42.3,25.0,30.36,SW,225,2.0,3.6,50,0.00,,---,0.00,VWS V14.01,2013-11-10 23:46:00,
2013-11-10 17:51:00,42.3,25.4,30.36,SW,225,1.3,2.7,51,0.00,,---,0.00,VWS V14.01,2013-11-10 23:51:00,
2013-11-10 17:56:00,42.3,25.4,30.36,SW,225,2.7,3.6,51,0.00,,---,0.00,VWS V14.01,2013-11-10 23:56:00,
2013-11-10 18:01:00,42.3,25.4,30.36,SW,225,2.5,2.7,51,0.00,,---,0.00,VWS V14.01,2013-11-11 00:01:00,
2013-11-10 18:06:00,42.3,25.4,30.36,South,180,2.9,5.8,51,0.00,,---,0.00,VWS V14.01,2013-11-11 00:06:00,
2013-11-10 18:11:00,42.3,25.9,30.36,SW,225,3.4,3.4,52,0.00,,---,0.00,VWS V14.01,2013-11-11 00:11:00,
2013-11-10 18:16:00,42.3,25.9,30.33,West,270,2.0,3.4,52,0.00,,---,0.00,VWS V14.01,2013-11-11 00:16:00,
2013-11-10 18:21:00,42.3,25.9,30.33,West,270,2.9,3.4,52,0.00,,---,0.00,VWS V14.01,2013-11-11 00:21:00,
2013-11-10 18:26:00,42.3,25.9,30.33,West,270,2.0,2.5,52,0.00,,---,0.00,VWS V14.01,2013-11-11 00:26:00,
2013-11-10 18:31:00,42.3,25.9,30.33,West,270,2.5,3.1,52,0.00,,---,0.00,VWS V14.01,2013-11-11 00:31:00,
2013-11-10 18:36:00,42.3,26.4,30.33,SW,225,3.1,4.0,53,0.00,,---,0.00,VWS V14.01,2013-11-11 00:36:00,
2013-11-10 18:41:00,42.3,26.4,30.33,SW,225,3.1,3.6,53,0.00,,---,0.00,VWS V14.01,2013-11-11 00:41:00,
2013-11-10 18:46:00,42.1,26.2,30.33,SW,225,4.0,5.4,53,0.00,,---,0.00,VWS V14.01,2013-11-11 00:46:00,
2013-11-10 18:51:00,42.1,26.2,30.33,West,270,3.8,3.8,53,0.00,,---,0.00,VWS V14.01,2013-11-11 00:51:00,
2013-11-10 18:56:00,41.9,26.0,30.33,SW,225,2.2,2.5,53,0.00,,---,0.00,VWS V14.01,2013-11-11 00:56:00,
2013-11-10 19:01:00,41.9,26.5,30.33,SW,225,2.5,2.5,54,0.00,,---,0.00,VWS V14.01,2013-11-11 01:01:00,
2013-11-10 19:06:00,42.1,26.6,30.33,SW,225,2.9,3.8,54,0.00,,---,0.00,VWS V14.01,2013-11-11 01:06:00,
2013-11-10 19:11:00,42.1,26.6,30.33,West,270,2.5,3.6,54,0.00,,---,0.00,VWS V14.01,2013-11-11 01:11:00,
2013-11-10 19:16:00,42.1,26.6,30.33,SW,225,3.8,3.8,54,0.00,,---,0.00,VWS V14.01,2013-11-11 01:16:00,
2013-11-10 19:21:00,42.1,26.6,30.33,West,270,4.3,5.4,54,0.00,,---,0.00,VWS V14.01,2013-11-11 01:21:00,
2013-11-10 19:26:00,42.1,27.1,30.33,West,270,4.7,4.7,55,0.00,,---,0.00,VWS V14.01,2013-11-11 01:26:00,
2013-11-10 19:31:00,42.1,27.1,30.33,SW,225,4.7,4.7,55,0.00,,---,0.00,VWS V14.01,2013-11-11 01:31:00,
2013-11-10 19:36:00,42.1,27.1,30.33,West,270,3.8,4.9,55,0.00,,---,0.00,VWS V14.01,2013-11-11 01:36:00,
2013-11-10 19:41:00,42.1,27.1,30.33,West,270,4.7,4.7,55,0.00,,---,0.00,VWS V14.01,2013-11-11 01:41:00,
2013-11-10 19:46:00,42.1,27.1,30.33,West,270,3.4,5.4,55,0.00,,---,0.00,VWS V14.01,2013-11-11 01:46:00,
2013-11-10 19:51:00,42.1,27.1,30.33,West,270,2.5,3.6,55,0.00,,---,0.00,VWS V14.01,2013-11-11 01:51:00,
2013-11-10 19:56:00,41.9,26.9,30.33,West,270,2.9,3.6,55,0.00,,---,0.00,VWS V14.01,2013-11-11 01:56:00,
2013-11-10 20:01:00,41.9,27.4,30.33,West,270,2.9,2.9,56,0.00,,---,0.00,VWS V14.01,2013-11-11 02:01:00,
2013-11-10 20:06:00,41.7,27.2,30.33,NW,315,2.7,3.1,56,0.00,,---,0.00,VWS V14.01,2013-11-11 02:06:00,
2013-11-10 20:11:00,41.7,27.2,30.33,West,270,2.7,2.7,56,0.00,,---,0.00,VWS V14.01,2013-11-11 02:11:00,
2013-11-10 20:16:00,41.7,27.2,30.30,West,270,3.1,3.6,56,0.00,,---,0.00,VWS V14.01,2013-11-11 02:16:00,
2013-11-10 20:21:00,41.7,27.2,30.30,SW,225,2.2,2.2,56,0.00,,---,0.00,VWS V14.01,2013-11-11 02:21:00,
2013-11-10 20:26:00,41.7,27.2,30.30,West,270,4.0,4.0,56,0.00,,---,0.00,VWS V14.01,2013-11-11 02:26:00,
2013-11-10 20:31:00,41.7,27.2,30.30,SW,225,2.7,2.7,56,0.00,,---,0.00,VWS V14.01,2013-11-11 02:31:00,
2013-11-10 20:36:00,41.5,27.0,30.30,SW,225,6.5,6.5,56,0.00,,---,0.00,VWS V14.01,2013-11-11 02:36:00,
2013-11-10 20:41:00,41.7,27.2,30.30,SW,225,3.4,4.7,56,0.00,,---,0.00,VWS V14.01,2013-11-11 02:41:00,
2013-11-10 20:46:00,41.7,27.2,30.30,West,270,3.8,3.8,56,0.00,,---,0.00,VWS V14.01,2013-11-11 02:46:00,
2013-11-10 20:51:00,41.7,27.2,30.30,SW,225,3.8,6.5,56,0.00,,---,0.00,VWS V14.01,2013-11-11 02:51:00,
2013-11-10 20:56:00,41.7,27.2,30.30,SW,225,3.6,3.6,56,0.00,,---,0.00,VWS V14.01,2013-11-11 02:56:00,
2013-11-10 21:01:00,41.7,27.2,30.30,West,270,3.8,5.6,56,0.00,,---,0.00,VWS V14.01,2013-11-11 03:01:00,
2013-11-10 21:06:00,41.7,27.2,30.30,West,270,5.8,5.8,56,0.00,,---,0.00,VWS V14.01,2013-11-11 03:06:00,
2013-11-10 21:11:00,41.7,27.2,30.30,SW,225,3.8,3.8,56,0.00,,---,0.00,VWS V14.01,2013-11-11 03:11:00,
2013-11-10 21:16:00,41.7,27.2,30.30,West,270,3.4,5.4,56,0.00,,---,0.00,VWS V14.01,2013-11-11 03:16:00,
2013-11-10 21:21:00,41.7,27.2,30.30,SW,225,5.8,5.8,56,0.00,,---,0.00,VWS V14.01,2013-11-11 03:21:00,
2013-11-10 21:26:00,41.7,27.2,30.30,SW,225,3.8,5.4,56,0.00,,---,0.00,VWS V14.01,2013-11-11 03:26:00,
2013-11-10 21:31:00,41.7,27.2,30.27,SW,225,4.0,4.0,56,0.00,,---,0.00,VWS V14.01,2013-11-11 03:31:00,
2013-11-10 21:36:00,41.7,27.2,30.27,SW,225,5.4,5.4,56,0.00,,---,0.00,VWS V14.01,2013-11-11 03:36:00,
2013-11-10 21:41:00,41.5,27.5,30.27,West,270,4.7,4.7,57,0.00,,---,0.00,VWS V14.01,2013-11-11 03:41:00,
2013-11-10 21:46:00,41.5,27.5,30.27,SW,225,2.7,2.7,57,0.00,,---,0.00,VWS V14.01,2013-11-11 03:46:00,
2013-11-10 21:51:00,41.4,27.3,30.27,West,270,4.0,4.0,57,0.00,,---,0.00,VWS V14.01,2013-11-11 03:51:00,
2013-11-10 21:56:00,41.4,27.3,30.27,West,270,5.4,5.4,57,0.00,,---,0.00,VWS V14.01,2013-11-11 03:56:00,
2013-11-10 22:01:00,41.4,27.3,30.27,West,270,2.5,2.7,57,0.00,,---,0.00,VWS V14.01,2013-11-11 04:01:00,
2013-11-10 22:06:00,41.4,27.7,30.27,West,270,3.1,3.1,58,0.00,,---,0.00,VWS V14.01,2013-11-11 04:06:00,
2013-11-10 22:11:00,41.4,27.7,30.27,SW,225,4.3,4.3,58,0.00,,---,0.00,VWS V14.01,2013-11-11 04:11:00,
2013-11-10 22:16:00,41.2,27.5,30.27,West,270,2.9,3.4,58,0.00,,---,0.00,VWS V14.01,2013-11-11 04:16:00,
2013-11-10 22:21:00,41.2,27.5,30.27,SW,225,3.8,5.8,58,0.00,,---,0.00,VWS V14.01,2013-11-11 04:21:00,
2013-11-10 22:26:00,41.2,28.0,30.27,SW,225,3.6,3.6,59,0.00,,---,0.00,VWS V14.01,2013-11-11 04:26:00,
2013-11-10 22:31:00,41.2,28.0,30.27,SW,225,3.1,3.1,59,0.00,,---,0.00,VWS V14.01,2013-11-11 04:31:00,
2013-11-10 22:36:00,41.0,27.8,30.27,West,270,4.0,4.0,59,0.00,,---,0.00,VWS V14.01,2013-11-11 04:36:00,
2013-11-10 22:41:00,41.0,28.2,30.27,West,270,4.0,4.0,60,0.00,,---,0.00,VWS V14.01,2013-11-11 04:41:00,
2013-11-10 22:46:00,41.0,28.2,30.27,West,270,3.4,3.4,60,0.00,,---,0.00,VWS V14.01,2013-11-11 04:46:00,
2013-11-10 22:51:00,41.0,28.2,30.27,SW,225,2.7,2.7,60,0.00,,---,0.00,VWS V14.01,2013-11-11 04:51:00,
2013-11-10 22:56:00,40.8,28.0,30.27,West,270,1.1,1.1,60,0.00,,---,0.00,VWS V14.01,2013-11-11 04:56:00,
2013-11-10 23:01:00,40.8,28.4,30.27,West,270,2.2,2.7,61,0.00,,---,0.00,VWS V14.01,2013-11-11 05:01:00,
2013-11-10 23:02:00,40.8,28.0,30.27,West,270,3.1,3.1,60,0.00,,---,0.00,VWS V14.01,2013-11-11 05:02:00,
2013-11-10 23:07:00,40.8,28.4,30.27,SW,225,3.1,5.6,61,0.00,,---,0.00,VWS V14.01,2013-11-11 05:07:00,
2013-11-10 23:12:00,40.8,28.4,30.27,West,270,3.4,5.4,61,0.00,,---,0.00,VWS V14.01,2013-11-11 05:12:00,
2013-11-10 23:17:00,40.8,28.4,30.27,West,270,3.6,5.6,61,0.00,,---,0.00,VWS V14.01,2013-11-11 05:17:00,
2013-11-10 23:22:00,40.8,28.4,30.27,South,180,3.4,4.0,61,0.00,,---,0.00,VWS V14.01,2013-11-11 05:22:00,
2013-11-10 23:27:00,40.8,28.4,30.27,SW,225,6.5,6.5,61,0.00,,---,0.00,VWS V14.01,2013-11-11 05:27:00,
2013-11-10 23:32:00,40.8,28.4,30.24,SW,225,2.9,4.3,61,0.00,,---,0.00,VWS V14.01,2013-11-11 05:32:00,
2013-11-10 23:37:00,40.8,28.4,30.24,SW,225,3.6,4.0,61,0.00,,---,0.00,VWS V14.01,2013-11-11 05:37:00,
2013-11-10 23:42:00,40.8,28.4,30.24,SW,225,6.3,6.3,61,0.00,,---,0.00,VWS V14.01,2013-11-11 05:42:00,
2013-11-10 23:47:00,40.8,28.8,30.24,SW,225,2.9,4.3,62,0.00,,---,9.58,VWS V14.01,2013-11-11 05:47:00,
2013-11-10 23:52:00,40.8,28.8,30.24,West,270,3.8,3.8,62,0.00,,---,0.00,VWS V14.01,2013-11-11 05:52:00,
2013-11-10 23:57:00,40.8,28.8,30.24,West,270,4.7,4.7,62,0.00,,---,0.00,VWS V14.01,2013-11-11 05:57:00,